Time,TemperatureF,DewpointF,PressureIn,WindDirection,WindDirectionDegrees,WindSpeedMPH,WindSpeedGustMPH,Humidity,HourlyPrecipIn,Conditions,Clouds,dailyrainin,SoftwareType,DateUTC
2013-01-04 00:03:00,17.0,14.0,30.03,WNW,298,1.0,4.0,88,0.00,,,0.00,,2013-01-04 05:03:00,
2013-01-04 00:12:00,17.0,14.0,30.03,WNW,298,1.0,4.0,88,0.00,,,0.00,,2013-01-04 05:12:00,
2013-01-04 00:22:00,17.0,14.0,30.02,WSW,239,0.0,7.0,87,0.00,,,0.00,,2013-01-04 05:22:00,
2013-01-04 00:33:00,17.0,14.0,30.01,East,84,0.0,3.0,88,0.00,,,0.00,,2013-01-04 05:33:00,
2013-01-04 00:42:00,17.0,14.0,30.01,East,84,0.0,3.0,88,0.00,,,0.00,,2013-01-04 05:42:00,
2013-01-04 00:53:00,18.0,15.0,30.01,WSW,255,1.0,5.0,88,0.00,,,0.00,,2013-01-04 05:53:00,
2013-01-04 01:02:00,19.0,16.0,30.00,WSW,240,0.0,4.0,87,0.00,,,0.00,,2013-01-04 06:02:00,
2013-01-04 01:12:00,19.0,16.0,30.00,WSW,240,0.0,4.0,87,0.00,,,0.00,,2013-01-04 06:12:00,
2013-01-04 01:22:00,19.0,16.0,30.00,NNE,19,1.0,5.0,88,0.00,,,0.00,,2013-01-04 06:22:00,
2013-01-04 01:33:00,19.0,16.0,29.99,West,269,2.0,6.0,88,0.00,,,0.00,,2013-01-04 06:33:00,
2013-01-04 01:42:00,19.0,16.0,29.99,West,269,2.0,6.0,88,0.00,,,0.00,,2013-01-04 06:42:00,
2013-01-04 01:52:00,19.0,16.0,29.99,West,259,1.0,6.0,89,0.00,,,0.00,,2013-01-04 06:52:00,
2013-01-04 02:02:00,20.0,17.0,30.00,WNW,302,1.0,6.0,89,0.00,,,0.00,,2013-01-04 07:02:00,
2013-01-04 02:12:00,20.0,17.0,30.00,WNW,302,1.0,6.0,89,0.00,,,0.00,,2013-01-04 07:12:00,
2013-01-04 02:22:00,20.0,17.0,29.99,SSW,208,1.0,6.0,89,0.00,,,0.00,,2013-01-04 07:22:00,
2013-01-04 02:32:00,20.0,17.0,30.00,WNW,289,2.0,7.0,88,0.00,,,0.00,,2013-01-04 07:32:00,
2013-01-04 02:42:00,20.0,17.0,30.00,WNW,289,2.0,7.0,88,0.00,,,0.00,,2013-01-04 07:42:00,
2013-01-04 02:52:00,20.0,17.0,29.99,NW,305,2.0,15.0,88,0.00,,,0.00,,2013-01-04 07:52:00,
2013-01-04 03:02:00,20.0,17.0,29.99,West,276,1.0,5.0,88,0.00,,,0.00,,2013-01-04 08:02:00,
2013-01-04 03:12:00,20.0,17.0,29.99,West,276,1.0,5.0,88,0.00,,,0.00,,2013-01-04 08:12:00,
2013-01-04 03:23:00,20.0,17.0,29.98,WNW,288,2.0,6.0,89,0.00,,,0.00,,2013-01-04 08:23:00,
2013-01-04 03:32:00,20.0,17.0,29.98,WNW,287,1.0,4.0,89,0.00,,,0.00,,2013-01-04 08:32:00,
2013-01-04 03:42:00,20.0,17.0,29.98,WNW,287,1.0,4.0,89,0.00,,,0.00,,2013-01-04 08:42:00,
2013-01-04 03:53:00,21.0,18.0,29.97,SSW,204,1.0,5.0,89,0.00,,,0.00,,2013-01-04 08:53:00,
2013-01-04 04:02:00,21.0,18.0,29.97,WNW,287,2.0,5.0,88,0.00,,,0.00,,2013-01-04 09:02:00,